Spokane Felts, WA

11:59 AM PDT on April 29, 2017 (GMT -0700)
Felts

Weather History for KSFF - December, 2013

Change the Weather History Date:

Friday, December 6, 2013

  Actual Average Record
Temperature  
Mean Temperature 13 °F 31 °F  
Max Temperature 19 °F 36 °F 48 °F (2003)
Min Temperature 7 °F 25 °F 7 °F (2013)
Degree Days  
Heating Degree Days 52 34  
Month to date heating degree days 239 202  
Since 1 July heating degree days 1765 1776  
Cooling Degree Days 0 0  
Month to date cooling degree days 0 0  
Year to date cooling degree days 704 406  
Moisture  
Dew Point -1 °F    
Average Humidity 63    
Maximum Humidity 83    
Minimum Humidity 42    
Precipitation  
Precipitation 0.00 in 0.09 in 0.25 in (2014)
Month to date precipitation 0.26 0.51  
Year to date precipitation 13.51 15.73  
Sea Level Pressure  
Sea Level Pressure 30.33 in    
Wind  
Wind Speed 7 mph (NE)    
Max Wind Speed 20 mph    
Max Gust Speed 25 mph    
Visibility 10 miles    
Events      
T = Trace of Precipitation, MM = Missing Value Source: NWS Daily Summary

Daily Weather History Graph

Daily Weather History Graph

Search for Another Location

Airport or City:

Trip Planner

Search our weather history database for the weather conditions in past years. The results will help you decide how hot, cold, wet, or windy it might be!

Date:

Astronomy

Dec. 06, 2013 Rise Set
Actual Time 7:23 AM PST 3:57 PM PST
Civil Twilight 6:47 AM PST 4:33 PM PST
Nautical Twilight 6:08 AM PST 5:12 PM PST
Astronomical Twilight 5:31 AM PST 5:49 PM PST
Moon 10:21 AM PST (12/6) 8:47 PM PST (12/6)
Length of Visible Light 9h 46m
Length of Day
8h 34m
Waxing Crescent, 20% of the Moon is Illuminated
Dec 6
Waxing Crescent
Dec 9
First Quarter
Dec 17
Full
Dec 25
Last Quarter
Jan 1
New

Hourly Weather History & Observations

Time (PST) Temp. Windchill Dew Point Humidity Pressure Visibility Wind Dir Wind Speed Gust Speed Precip Events Conditions
12:53 AM 10.9 °F - 7.0 °F 84% 30.32 in 9.0 mi Calm Calm - N/A   Clear
1:53 AM 10.0 °F - 6.1 °F 84% 30.33 in 10.0 mi Calm Calm - N/A   Clear
2:53 AM 9.0 °F - 5.0 °F 84% 30.33 in 9.0 mi Calm Calm - N/A   Clear
3:53 AM 10.0 °F - 6.1 °F 84% 30.32 in 10.0 mi Calm Calm - N/A   Clear
4:53 AM 9.0 °F - 5.0 °F 84% 30.34 in 10.0 mi Calm Calm - N/A   Clear
5:53 AM 9.0 °F - 3.9 °F 80% 30.35 in 10.0 mi Calm Calm - N/A   Clear
6:53 AM 9.0 °F - 3.0 °F 77% 30.34 in 10.0 mi Calm Calm - N/A   Clear
7:53 AM 12.0 °F 4.1 °F 1.9 °F 64% 30.35 in 10.0 mi ENE 4.6 mph - N/A   Clear
8:53 AM 14.0 °F 3.9 °F 1.9 °F 59% 30.35 in 10.0 mi ENE 6.9 mph - N/A   Clear
9:53 AM 16.0 °F 1.1 °F -0.0 °F 49% 30.36 in 10.0 mi ENE 15.0 mph 20.7 mph N/A   Clear
10:53 AM 18.0 °F 3.1 °F -0.9 °F 44% 30.35 in 10.0 mi ENE 16.1 mph 23.0 mph N/A   Partly Cloudy
11:53 AM 18.0 °F 4.8 °F -0.9 °F 44% 30.33 in 10.0 mi ENE 12.7 mph 18.4 mph N/A   Scattered Clouds
12:53 PM 18.0 °F 6.1 °F -0.9 °F 44% 30.31 in 10.0 mi NE 10.4 mph 19.6 mph N/A   Partly Cloudy
1:53 PM 19.0 °F 10.0 °F -0.0 °F 43% 30.29 in 10.0 mi NE 6.9 mph - N/A   Clear
2:53 PM 17.1 °F 6.6 °F -2.9 °F 41% 30.30 in 10.0 mi NE 8.1 mph 19.6 mph N/A   Partly Cloudy
3:53 PM 16.0 °F 5.3 °F -2.0 °F 45% 30.31 in 10.0 mi NNE 8.1 mph 18.4 mph N/A   Partly Cloudy
4:53 PM 15.1 °F 2.5 °F -2.9 °F 45% 30.32 in 10.0 mi NNE 10.4 mph 20.7 mph N/A   Partly Cloudy
5:53 PM 14.0 °F 6.5 °F -2.9 °F 47% 30.32 in 10.0 mi Variable 4.6 mph - N/A   Clear
6:53 PM 12.9 °F 1.6 °F -5.1 °F 45% 30.32 in 10.0 mi NE 8.1 mph 21.9 mph N/A   Clear
7:53 PM 12.0 °F -1.3 °F -7.1 °F 42% 30.32 in 10.0 mi NE 10.4 mph 18.4 mph N/A   Clear
8:53 PM 10.9 °F -0.8 °F -8.0 °F 42% 30.33 in 10.0 mi NE 8.1 mph 21.9 mph N/A   Clear
9:53 PM 10.9 °F 1.4 °F -4.0 °F 51% 30.32 in 10.0 mi NNE 5.8 mph 23.0 mph N/A   Clear
10:53 PM 10.9 °F -3.4 °F -7.1 °F 44% 30.31 in 10.0 mi NE 11.5 mph 17.3 mph N/A   Clear
11:53 PM 10.0 °F -4.5 °F -9.0 °F 42% 30.30 in 10.0 mi ENE 11.5 mph - N/A   Clear